AirNav   Everest Fuels
 
 837 users online  

97G Glowacki Airport
St Johns, Michigan, USA

GOING TO ST JOHNS?


FAA INFORMATION EFFECTIVE 16 JULY 2020

Location

FAA Identifier: 97G
Lat/Long: 43-00-00.1150N 084-35-44.9530W
43-00.001917N 084-35.749217W
43.0000319,-84.5958203
(estimated)
Elevation: 775 ft. / 236 m (estimated)
Variation: 05W (1985)
From city: 2 miles W of ST JOHNS, MI
Time zone: UTC -4 (UTC -5 during Standard Time)
Zip code: 48879

Airport Operations

Airport use: Open to the public
Activation date: 09/1969
Control tower: no
ARTCC: CLEVELAND CENTER
FSS: LANSING FLIGHT SERVICE STATION
NOTAMs facility: LAN (NOTAM-D service available)
Attendance: IREG
Wind indicator: yes
Segmented circle: no

Airport Communications

CTAF: 122.9
WX ASOS at LAN (13 nm S): 119.75 (517-908-8494)
WX AWOS-3 at AMN (20 nm N): 124.175 (989-463-3433)

Nearby radio navigation aids

VOR radial/distance  VOR name  Freq  Var
FNTr279/37.3FLINT VORTAC116.9006W
MOPr176/37.9MOUNT PLEASANT VOR/DME110.6005W
MBSr218/39.1SAGINAW VOR/DME112.9003W

Airport Services

Parking: tiedowns
Airframe service: NONE
Powerplant service: NONE

Runway Information

Runway 9/27

Dimensions: 1528 x 100 ft. / 466 x 30 m
Surface: turf, in good condition
Runway edge markings: 09/27 MARKED WITH 3 FT YELLOW CONES.
RUNWAY 9  RUNWAY 27
Traffic pattern: leftleft
Obstructions: 80 ft. trees, 2000 ft. from runway, 25:1 slope to clear
ALSO 20 FT PLINE 910 FT FM THR APCH RATIO 45:1.
65 ft. tank, 1470 ft. from runway, 42 ft. left of centerline, 22:1 slope to clear

Airport Ownership and Management from official FAA records

Ownership: Privately-owned
Owner: SYBIL GLOWACKI
3561 W M-21
SAINT JOHNS, MI 48879-9504
Phone 989-224-2759
Manager: GREG GLOWACKI
3561 W M-21
SAINT JOHNS, MI 48879-9504
Phone 989-224-2759

Airport Operational Statistics

Aircraft operations: 100/year *
50% transient general aviation
50% local general aviation
* for 12-month period ending 31 December 2019

Additional Remarks

RY 27 TERRAIN SLOPES DOWNWARD E TO W; RWY SOFT IN SPRING.
345 FT ANT ENE OF ARPT.
RDO-CTL AND ULTRALIGHT ACFT OPER ON ARPT.
40 FT TREE N SIDE OF RWY ON RWY EDGE, 132 FT EAST OF RWY 09.
SEASONAL 10 FT CROPS EAST OF RWY 27.
FOR CD CTC GREAT LAKES APCH AT 269-459-3345, WHEN APCH CLSD CTC CLEVELAND ARTCC AT 440-774-0224/0490.

Instrument Procedures

There are no published instrument procedures at 97G.

Some nearby airports with instrument procedures:

KLAN - Capital Region International Airport (13 nm S)
4D0 - Abrams Municipal Airport (15 nm SW)
KAMN - Gratiot Community Airport (20 nm N)
KRNP - Owosso Community Airport (20 nm E)
Y70 - Ionia County Airport (21 nm W)
 
Loc | Ops | Rwys | IFR | FBO | Links
Com | Nav | Svcs | Stats | Notes
Area around 97G (Glowacki Airport)
 
Road maps at: MapQuest Bing Google
 
Aerial photo
No photo
 
Sectional chart

 
Airport distance calculator
Flying to Glowacki Airport? Find the distance to fly.

From to 97G

Sunrise and sunset
Times for 04-Aug-2020
 Local
(UTC-4)
 Zulu
(UTC)
Morning civil twilight06:0310:03
Sunrise06:3410:34
Sunset20:5400:54
Evening civil twilight21:2601:26

Current date and time
Zulu (UTC)  05-Aug-2020 03:10:30
Local (UTC-4)  04-Aug-2020 23:10:30
 
METAR
KLAN 
13nm S 
050253Z 00000KT 10SM CLR 16/12 A3004 RMK AO2 SLP173 T01560122 53017
KAMN 
19nm N 
050255Z AUTO 27003KT 10SM SCT080 15/12 A3004 RMK AO2 T01480119
KRNP 
20nm E 
050255Z AUTO 31003KT 10SM OVC085 15/14 A3002 RMK AO2 T01530137
KY70 
21nm W 
050255Z AUTO 00000KT 10SM CLR 16/11 A3004 RMK AO2 T01560105
TAF
KLAN 
13nm S 
041740Z 0418/0518 35007KT P6SM OVC015 FM041900 33008KT P6SM BKN035 FM050000 33004KT P6SM SCT250 FM050700 30002KT P6SM SCT250
NOTAMs
Click for the latest NOTAMs
NOTAMs are issued by the DoD/FAA and will open in a separate window not controlled by AirNav.

 

 
 

Would you like to see your business listed on this page?

 If your business provides an interesting product or service to pilots, flight crews, aircraft, or users of the Glowacki Airport, you should consider listing it here.  To start the listing process, click on the button below
 
Add a business
 

Other Pages about Glowacki Airport

Page from the Michigan Airport Directory (PDF)
 
Update a link
 
Copyright © AirNav, LLC. All rights reserved. Privacy Policy  Contact